Location: Kunchanapalle
(16.4623°N, 80.6176°E)
Time: 13:40:01
(UTC+00:00)

ASTRO E2 - Pass Details

Date: 13 August 2020
Orbit: 510 x 516 km, 31.4° (Epoch: 24 September)

Event Time Altitude Azimuth Distance (km) Brightness Sun altitude
Exits shadow 23:19:35 28° 250° (WSW) 969 3.5 -15.0°
Maximum altitude 23:21:33 76° 331° (NNW) 523 2.6 -14.5°
Drops below altitude 10° 23:25:30 10° 58° (ENE) 1,712 6.7 -13.6°
Sets 23:27:43 0° 60° (ENE) 2,597 8.1 -13.1°
